Location: Krakow
(50.0830°N, 19.9170°E)
Time: 18:51:29
(UTC+01:00)

SR - Pass Details

Date: 11 February 2023
Orbit: 582 x 867 km, 66.7° (Epoch: 20 March)

Event Time Altitude Azimuth Distance (km) Brightness Sun altitude
Rises 17:30:28 0° 320° (NW) 2,933 ? -6.9°
Reaches altitude 10° 17:34:57 10° 2° (N) 1,963 ? -7.6°
Maximum altitude 17:35:46 10° 12° (NNE) 1,925 ? -7.7°
Drops below altitude 10° 17:36:35 10° 23° (NNE) 1,946 ? -7.8°
Enters shadow 17:38:33 - 47° (NE) 2,214 ? -8.1°
Sets 17:40:54 0° 65° (ENE) 2,816 - -8.5°
